Time,TemperatureF,DewpointF,PressureIn,WindDirection,WindDirectionDegrees,WindSpeedMPH,WindSpeedGustMPH,Humidity,HourlyPrecipIn,Conditions,Clouds,dailyrainin,SoftwareType,DateUTC
2013-01-15 00:07:00,40.5,38.1,30.32,North,360,0.0,0.0,91,0.00,,-RA,0.00,VWS V14.01,2013-01-15 05:07:00,
2013-01-15 00:08:00,40.5,38.1,30.32,North,360,0.0,0.0,91,0.00,,-RA,0.00,VWS V14.01,2013-01-15 05:08:00,
2013-01-15 00:13:00,40.4,38.0,30.32,North,360,0.0,0.0,91,0.00,,-RA,0.00,VWS V14.01,2013-01-15 05:13:00,
2013-01-15 00:18:00,40.5,37.8,30.32,North,360,0.0,0.0,90,0.00,,-RA,0.00,VWS V14.01,2013-01-15 05:18:00,
2013-01-15 00:23:00,40.5,38.1,30.32,North,360,0.0,0.0,91,0.00,,-RA,0.00,VWS V14.01,2013-01-15 05:23:00,
2013-01-15 00:28:00,40.6,38.5,30.30,North,360,0.0,0.0,92,0.00,,-RA,0.00,VWS V14.01,2013-01-15 05:28:00,
2013-01-15 00:33:00,40.5,38.4,30.30,North,360,0.0,0.0,92,0.00,,-RA,0.00,VWS V14.01,2013-01-15 05:33:00,
2013-01-15 00:43:00,40.6,38.2,30.29,North,360,0.0,0.0,91,0.00,,-RA,0.00,VWS V14.01,2013-01-15 05:43:00,
2013-01-15 00:48:00,40.5,38.4,30.28,North,360,0.0,0.0,92,0.00,,-RA,0.00,VWS V14.01,2013-01-15 05:48:00,
2013-01-15 00:53:00,40.6,38.2,30.28,North,360,0.0,0.0,91,0.00,,-RA,0.00,VWS V14.01,2013-01-15 05:53:00,
2013-01-15 00:58:00,40.7,38.3,30.28,North,360,0.0,0.0,91,0.00,,-RA,0.00,VWS V14.01,2013-01-15 05:58:00,
2013-01-15 01:07:00,40.7,38.3,30.27,North,360,0.0,0.0,91,0.00,,-RA,0.00,VWS V14.01,2013-01-15 06:07:00,
2013-01-15 01:13:00,40.7,38.6,30.27,North,360,0.0,0.0,92,0.00,,-RA,0.00,VWS V14.01,2013-01-15 06:13:00,
2013-01-15 01:18:00,40.5,38.7,30.27,North,360,0.0,0.0,93,0.00,,-RA,0.00,VWS V14.01,2013-01-15 06:18:00,
2013-01-15 01:23:00,40.5,38.7,30.27,North,360,0.0,0.0,93,0.00,,-RA,0.00,VWS V14.01,2013-01-15 06:23:00,
2013-01-15 01:28:00,40.4,38.9,30.27,North,360,0.0,0.0,94,0.00,,-RA,0.00,VWS V14.01,2013-01-15 06:28:00,
2013-01-15 01:33:00,40.3,39.1,30.27,North,360,0.0,0.0,96,0.00,,-RA,0.00,VWS V14.01,2013-01-15 06:33:00,
2013-01-15 01:43:00,40.1,38.9,30.26,North,360,0.0,0.0,96,0.00,,-RA,0.00,VWS V14.01,2013-01-15 06:43:00,
2013-01-15 01:48:00,40.1,39.2,30.26,North,360,0.0,0.0,97,0.00,,-RA,0.00,VWS V14.01,2013-01-15 06:48:00,
2013-01-15 01:58:00,39.9,39.0,30.27,North,360,0.0,0.0,97,0.00,,OVC080,0.00,VWS V14.01,2013-01-15 06:58:00,
2013-01-15 02:07:00,39.9,39.0,30.27,North,360,0.0,0.0,97,0.00,,OVC080,0.00,VWS V14.01,2013-01-15 07:07:00,
2013-01-15 02:13:00,39.8,38.9,30.26,North,360,0.0,0.0,97,0.00,,OVC080,0.00,VWS V14.01,2013-01-15 07:13:00,
2013-01-15 02:18:00,39.8,38.9,30.25,North,360,0.0,0.0,97,0.00,,OVC080,0.00,VWS V14.01,2013-01-15 07:18:00,
2013-01-15 02:28:00,39.6,38.7,30.26,North,360,0.0,0.0,97,0.00,,OVC080,0.00,VWS V14.01,2013-01-15 07:28:00,
2013-01-15 02:33:00,39.5,38.9,30.26,North,360,0.0,0.0,98,0.00,,OVC080,0.00,VWS V14.01,2013-01-15 07:33:00,
2013-01-15 02:38:00,39.5,38.6,30.25,North,360,0.0,0.0,97,0.00,,OVC080,0.00,VWS V14.01,2013-01-15 07:38:00,
2013-01-15 02:48:00,39.5,38.9,30.26,North,360,0.0,0.0,98,0.00,,OVC080,0.00,VWS V14.01,2013-01-15 07:48:00,
2013-01-15 02:53:00,39.6,39.0,30.26,North,360,0.0,0.0,98,0.00,,OVC080,0.00,VWS V14.01,2013-01-15 07:53:00,
2013-01-15 02:58:00,39.5,38.9,30.28,North,360,0.0,0.0,98,0.00,,-RA,0.00,VWS V14.01,2013-01-15 07:58:00,
2013-01-15 03:07:00,39.5,38.9,30.28,North,360,0.0,0.0,98,0.00,,-RA,0.00,VWS V14.01,2013-01-15 08:07:00,
2013-01-15 03:13:00,39.6,39.0,30.27,North,360,0.0,0.0,98,0.00,,-RA,0.00,VWS V14.01,2013-01-15 08:13:00,
2013-01-15 03:18:00,39.6,39.0,30.27,North,360,0.0,0.0,98,0.00,,-RA,0.00,VWS V14.01,2013-01-15 08:18:00,
2013-01-15 03:28:00,39.8,39.2,30.26,North,360,0.0,0.0,98,0.00,,-RA,0.00,VWS V14.01,2013-01-15 08:28:00,
2013-01-15 03:33:00,39.7,39.1,30.27,North,360,0.0,0.0,98,0.00,,-RA,0.00,VWS V14.01,2013-01-15 08:33:00,
2013-01-15 03:38:00,39.7,39.1,30.28,North,360,0.0,0.0,98,0.00,,-RA,0.00,VWS V14.01,2013-01-15 08:38:00,
2013-01-15 03:43:00,39.8,39.2,30.28,North,360,0.0,0.0,98,0.00,,-RA,0.00,VWS V14.01,2013-01-15 08:43:00,
2013-01-15 03:48:00,39.8,39.2,30.28,North,360,0.0,0.0,98,0.00,,-RA,0.00,VWS V14.01,2013-01-15 08:48:00,
2013-01-15 03:58:00,39.8,39.2,30.28,North,360,0.0,0.0,98,0.00,,-RA,0.00,VWS V14.01,2013-01-15 08:58:00,
2013-01-15 04:07:00,39.6,39.0,30.28,North,360,0.0,0.0,98,0.00,,-RA,0.00,VWS V14.01,2013-01-15 09:07:00,
2013-01-15 04:13:00,39.5,38.9,30.27,North,360,0.0,0.0,98,0.00,,-RA,0.00,VWS V14.01,2013-01-15 09:13:00,
2013-01-15 04:18:00,39.6,38.7,30.29,North,360,0.0,0.0,97,0.00,,-RA,0.00,VWS V14.01,2013-01-15 09:18:00,
2013-01-15 04:23:00,39.5,38.6,30.28,North,360,0.0,0.0,97,0.00,,-RA,0.00,VWS V14.01,2013-01-15 09:23:00,
2013-01-15 04:28:00,39.4,38.5,30.28,North,360,0.0,0.0,97,0.00,,-RA,0.00,VWS V14.01,2013-01-15 09:28:00,
2013-01-15 04:33:00,39.4,38.5,30.27,North,360,0.0,0.0,97,0.00,,-RA,0.00,VWS V14.01,2013-01-15 09:33:00,
2013-01-15 04:38:00,39.4,38.5,30.27,North,360,0.0,0.0,97,0.00,,-RA,0.00,VWS V14.01,2013-01-15 09:38:00,
2013-01-15 04:43:00,39.4,38.5,30.28,North,360,0.0,0.0,97,0.00,,-RA,0.00,VWS V14.01,2013-01-15 09:43:00,
2013-01-15 04:48:00,39.5,38.6,30.27,North,360,0.0,0.0,97,0.00,,-RA,0.00,VWS V14.01,2013-01-15 09:48:00,
2013-01-15 04:58:00,39.6,38.7,30.26,North,360,0.0,0.0,97,0.00,,-RA,0.00,VWS V14.01,2013-01-15 09:58:00,
2013-01-15 05:07:00,39.5,38.6,30.26,North,360,0.0,0.0,97,0.00,,-RA,0.00,VWS V14.01,2013-01-15 10:07:00,
2013-01-15 05:13:00,39.5,38.6,30.26,North,360,0.0,0.0,97,0.00,,-RA,0.00,VWS V14.01,2013-01-15 10:13:00,
2013-01-15 05:18:00,39.6,38.7,30.27,North,360,0.0,0.0,97,0.00,,-RA,0.00,VWS V14.01,2013-01-15 10:18:00,
2013-01-15 05:23:00,39.6,38.7,30.25,North,360,0.0,0.0,97,0.00,,-RA,0.00,VWS V14.01,2013-01-15 10:23:00,
2013-01-15 05:28:00,39.5,38.6,30.26,North,360,0.0,0.0,97,0.00,,-RA,0.00,VWS V14.01,2013-01-15 10:28:00,
2013-01-15 05:33:00,39.6,38.4,30.26,North,360,0.0,0.0,96,0.00,,-RA,0.00,VWS V14.01,2013-01-15 10:33:00,
2013-01-15 05:38:00,39.5,38.3,30.26,North,360,0.0,0.0,96,0.00,,-RA,0.00,VWS V14.01,2013-01-15 10:38:00,
2013-01-15 05:45:00,39.6,38.4,30.26,North,360,0.0,0.0,96,0.00,,-RA,0.00,VWS V14.01,2013-01-15 10:45:00,
2013-01-15 05:55:00,39.6,38.1,30.26,North,360,0.0,0.0,94,0.00,,-RA,0.00,VWS V14.01,2013-01-15 10:55:00,
2013-01-15 06:07:00,39.6,38.4,30.27,North,360,0.0,0.0,96,0.00,,-RA,0.00,VWS V14.01,2013-01-15 11:07:00,
2013-01-15 06:13:00,39.8,38.6,30.27,North,360,0.0,0.0,96,0.00,,-RA,0.00,VWS V14.01,2013-01-15 11:13:00,
2013-01-15 06:23:00,40.0,38.8,30.28,North,360,0.0,0.0,96,0.00,,-RA,0.00,VWS V14.01,2013-01-15 11:23:00,
2013-01-15 06:28:00,40.0,39.1,30.28,North,360,0.0,0.0,97,0.00,,-RA,0.00,VWS V14.01,2013-01-15 11:28:00,
2013-01-15 06:38:00,39.9,39.0,30.29,North,360,0.0,0.0,97,0.00,,-RA,0.00,VWS V14.01,2013-01-15 11:38:00,
2013-01-15 06:43:00,39.7,39.1,30.29,North,360,0.0,0.0,98,0.00,,-RA,0.00,VWS V14.01,2013-01-15 11:43:00,
2013-01-15 06:53:00,39.8,39.2,30.29,North,360,0.0,0.0,98,0.00,,-RA,0.00,VWS V14.01,2013-01-15 11:53:00,
2013-01-15 06:58:00,39.9,39.3,30.30,North,360,0.0,0.0,98,0.00,,,0.00,VWS V14.01,2013-01-15 11:58:00,
2013-01-15 07:07:00,39.8,39.2,30.29,North,360,0.0,0.0,98,0.00,,,0.00,VWS V14.01,2013-01-15 12:07:00,
2013-01-15 07:13:00,39.7,39.1,30.30,North,360,0.0,0.0,98,0.00,,,0.00,VWS V14.01,2013-01-15 12:13:00,
2013-01-15 07:18:00,39.8,39.2,30.29,North,360,0.0,0.0,98,0.00,,,0.00,VWS V14.01,2013-01-15 12:18:00,
2013-01-15 07:28:00,39.7,39.1,30.30,North,360,0.0,0.0,98,0.00,,,0.00,VWS V14.01,2013-01-15 12:28:00,
2013-01-15 07:33:00,39.7,39.1,30.30,North,360,0.0,0.0,98,0.00,,,0.00,VWS V14.01,2013-01-15 12:33:00,
2013-01-15 07:38:00,39.8,39.5,30.31,North,360,0.0,0.0,99,0.00,,,0.00,VWS V14.01,2013-01-15 12:38:00,
2013-01-15 07:43:00,39.7,39.1,30.32,North,360,0.0,0.0,98,0.00,,,0.00,VWS V14.01,2013-01-15 12:43:00,
2013-01-15 07:48:00,39.7,39.1,30.33,North,360,0.0,0.0,98,0.00,,,0.00,VWS V14.01,2013-01-15 12:48:00,
2013-01-15 07:58:00,39.9,39.3,30.32,North,360,0.0,0.0,98,0.00,,,0.00,VWS V14.01,2013-01-15 12:58:00,
2013-01-15 08:07:00,40.0,39.7,30.32,North,360,0.0,0.0,99,0.00,,,0.00,VWS V14.01,2013-01-15 13:07:00,
2013-01-15 08:13:00,39.7,39.1,30.34,North,360,0.0,0.0,98,0.00,,,0.00,VWS V14.01,2013-01-15 13:13:00,
2013-01-15 08:18:00,39.9,39.6,30.33,North,360,0.0,0.0,99,0.00,,,0.00,VWS V14.01,2013-01-15 13:18:00,
2013-01-15 08:28:00,39.7,39.1,30.35,North,360,0.0,0.0,98,0.00,,,0.00,VWS V14.01,2013-01-15 13:28:00,
2013-01-15 08:33:00,39.7,39.1,30.35,North,360,0.0,0.0,98,0.00,,,0.00,VWS V14.01,2013-01-15 13:33:00,
2013-01-15 08:38:00,39.8,39.5,30.35,North,360,0.0,0.0,99,0.00,,,0.00,VWS V14.01,2013-01-15 13:38:00,
2013-01-15 08:43:00,39.7,39.4,30.34,North,360,0.0,0.0,99,0.00,,,0.00,VWS V14.01,2013-01-15 13:43:00,
2013-01-15 08:48:00,39.6,39.3,30.34,North,360,0.0,0.0,99,0.00,,,0.00,VWS V14.01,2013-01-15 13:48:00,
2013-01-15 08:58:00,39.6,39.3,30.35,North,360,0.0,0.0,99,0.00,,,0.00,VWS V14.01,2013-01-15 13:58:00,
2013-01-15 09:07:00,39.7,39.4,30.34,North,360,0.0,0.0,99,0.00,,,0.00,VWS V14.01,2013-01-15 14:07:00,
2013-01-15 09:13:00,39.6,39.3,30.34,North,360,0.0,0.0,99,0.00,,,0.00,VWS V14.01,2013-01-15 14:13:00,
2013-01-15 09:18:00,39.6,39.3,30.34,North,360,0.0,0.0,99,0.00,,,0.00,VWS V14.01,2013-01-15 14:18:00,
2013-01-15 09:23:00,39.7,39.4,30.34,North,360,0.0,0.0,99,0.00,,,0.00,VWS V14.01,2013-01-15 14:23:00,
2013-01-15 09:28:00,39.7,39.4,30.35,North,360,0.0,0.0,99,0.00,,,0.00,VWS V14.01,2013-01-15 14:28:00,
2013-01-15 09:33:00,39.6,39.3,30.33,North,360,0.0,0.0,99,0.00,,,0.00,VWS V14.01,2013-01-15 14:33:00,
2013-01-15 09:43:00,39.8,39.2,30.34,North,360,0.0,0.0,98,0.00,,,0.00,VWS V14.01,2013-01-15 14:43:00,
2013-01-15 09:48:00,39.8,39.2,30.33,North,360,0.0,0.0,98,0.00,,,0.00,VWS V14.01,2013-01-15 14:48:00,
2013-01-15 09:53:00,39.7,39.1,30.35,North,360,0.0,0.0,98,0.00,,,0.00,VWS V14.01,2013-01-15 14:53:00,
2013-01-15 09:58:00,39.7,39.1,30.35,North,360,0.0,0.0,98,0.00,,,0.00,VWS V14.01,2013-01-15 14:58:00,
2013-01-15 10:07:00,39.7,39.1,30.35,North,360,0.0,0.0,98,0.00,,,0.00,VWS V14.01,2013-01-15 15:07:00,
2013-01-15 10:13:00,39.7,39.1,30.35,North,360,0.0,0.0,98,0.00,,,0.00,VWS V14.01,2013-01-15 15:13:00,
2013-01-15 10:18:00,39.9,39.3,30.35,North,360,0.0,0.0,98,0.00,,,0.00,VWS V14.01,2013-01-15 15:18:00,
2013-01-15 10:23:00,39.8,39.2,30.34,North,360,0.0,0.0,98,0.00,,,0.00,VWS V14.01,2013-01-15 15:23:00,
2013-01-15 10:28:00,39.9,39.3,30.36,North,360,0.0,0.0,98,0.00,,,0.00,VWS V14.01,2013-01-15 15:28:00,
2013-01-15 10:33:00,39.9,39.3,30.37,North,360,0.0,0.0,98,0.00,,,0.00,VWS V14.01,2013-01-15 15:33:00,
2013-01-15 10:38:00,39.8,39.2,30.35,North,360,0.0,0.0,98,0.00,,,0.00,VWS V14.01,2013-01-15 15:38:00,
2013-01-15 10:43:00,39.8,39.2,30.34,North,360,0.0,0.0,98,0.00,,,0.00,VWS V14.01,2013-01-15 15:43:00,
2013-01-15 10:48:00,40.0,39.4,30.33,North,360,0.0,0.0,98,0.00,,,0.00,VWS V14.01,2013-01-15 15:48:00,
2013-01-15 10:53:00,40.0,39.4,30.35,North,360,0.0,0.0,98,0.00,,,0.00,VWS V14.01,2013-01-15 15:53:00,
2013-01-15 10:58:00,40.0,39.4,30.36,North,360,0.0,0.0,98,0.00,,,0.00,VWS V14.01,2013-01-15 15:58:00,
2013-01-15 11:07:00,40.0,39.7,30.35,North,360,0.0,0.0,99,0.00,,,0.00,VWS V14.01,2013-01-15 16:07:00,
2013-01-15 11:13:00,40.0,39.4,30.34,North,360,0.0,0.0,98,0.00,,,0.00,VWS V14.01,2013-01-15 16:13:00,
2013-01-15 11:18:00,39.7,39.1,30.33,North,360,0.0,0.0,98,0.00,,,0.00,VWS V14.01,2013-01-15 16:18:00,
2013-01-15 11:23:00,39.7,39.1,30.34,North,360,0.0,0.0,98,0.00,,,0.00,VWS V14.01,2013-01-15 16:23:00,
2013-01-15 11:28:00,39.8,39.2,30.34,North,360,0.0,0.0,98,0.00,,,0.00,VWS V14.01,2013-01-15 16:28:00,
2013-01-15 11:33:00,39.7,39.1,30.32,North,360,0.0,0.0,98,0.00,,,0.00,VWS V14.01,2013-01-15 16:33:00,
2013-01-15 11:38:00,39.9,39.3,30.31,North,360,0.0,0.0,98,0.00,,,0.00,VWS V14.01,2013-01-15 16:38:00,
2013-01-15 11:43:00,39.9,39.3,30.31,North,360,0.0,0.0,98,0.00,,,0.00,VWS V14.01,2013-01-15 16:43:00,
2013-01-15 11:48:00,40.0,39.4,30.34,North,360,0.0,0.0,98,0.00,,,0.00,VWS V14.01,2013-01-15 16:48:00,
2013-01-15 11:58:00,40.0,39.4,30.32,North,360,0.0,0.0,98,0.00,,-RA,0.00,VWS V14.01,2013-01-15 16:58:00,
2013-01-15 12:07:00,40.0,39.4,30.33,North,360,0.0,0.0,98,0.00,,-RA,0.00,VWS V14.01,2013-01-15 17:07:00,
2013-01-15 12:13:00,39.9,39.3,30.32,North,360,0.0,0.0,98,0.00,,-RA,0.00,VWS V14.01,2013-01-15 17:13:00,
2013-01-15 12:18:00,40.1,39.5,30.32,North,360,0.0,0.0,98,0.00,,-RA,0.00,VWS V14.01,2013-01-15 17:18:00,
2013-01-15 12:23:00,40.0,39.4,30.31,North,360,0.0,0.0,98,0.00,,-RA,0.00,VWS V14.01,2013-01-15 17:23:00,
2013-01-15 12:28:00,40.0,39.4,30.31,North,360,0.0,0.0,98,0.00,,-RA,0.00,VWS V14.01,2013-01-15 17:28:00,
2013-01-15 12:38:00,40.1,39.5,30.32,North,360,0.0,0.0,98,0.00,,-RA,0.00,VWS V14.01,2013-01-15 17:38:00,
2013-01-15 12:43:00,40.0,39.4,30.30,North,360,0.0,0.0,98,0.00,,-RA,0.00,VWS V14.01,2013-01-15 17:43:00,
2013-01-15 12:48:00,40.1,39.5,30.30,North,360,0.0,0.0,98,0.00,,-RA,0.00,VWS V14.01,2013-01-15 17:48:00,
2013-01-15 12:53:00,40.1,39.5,30.29,North,360,0.0,0.0,98,0.00,,-RA,0.00,VWS V14.01,2013-01-15 17:53:00,
2013-01-15 12:58:00,40.2,39.6,30.31,North,360,0.0,0.0,98,0.00,,-RA,0.00,VWS V14.01,2013-01-15 17:58:00,
2013-01-15 13:07:00,40.2,39.6,30.30,North,360,0.0,0.0,98,0.00,,-RA,0.00,VWS V14.01,2013-01-15 18:07:00,
2013-01-15 13:13:00,40.1,39.5,30.31,North,360,0.0,0.0,98,0.00,,-RA,0.00,VWS V14.01,2013-01-15 18:13:00,
2013-01-15 13:18:00,40.0,39.4,30.29,North,360,0.0,0.0,98,0.00,,-RA,0.00,VWS V14.01,2013-01-15 18:18:00,
2013-01-15 13:23:00,40.1,39.2,30.30,North,360,0.0,0.0,97,0.00,,-RA,0.00,VWS V14.01,2013-01-15 18:23:00,
2013-01-15 13:28:00,40.1,39.2,30.29,North,360,0.0,0.0,97,0.00,,-RA,0.00,VWS V14.01,2013-01-15 18:28:00,
2013-01-15 13:33:00,40.2,39.3,30.30,North,360,0.0,0.0,97,0.00,,-RA,0.00,VWS V14.01,2013-01-15 18:33:00,
2013-01-15 13:38:00,40.2,39.3,30.28,North,360,0.0,0.0,97,0.00,,-RA,0.00,VWS V14.01,2013-01-15 18:38:00,
2013-01-15 13:48:00,40.2,39.3,30.26,North,360,0.0,0.0,97,0.00,,-RA,0.00,VWS V14.01,2013-01-15 18:48:00,
2013-01-15 13:53:00,40.1,39.2,30.27,North,360,0.0,0.0,97,0.00,,-RA,0.00,VWS V14.01,2013-01-15 18:53:00,
2013-01-15 13:58:00,40.1,39.2,30.27,North,360,0.0,0.0,97,0.00,,,0.00,VWS V14.01,2013-01-15 18:58:00,
2013-01-15 14:07:00,40.1,39.2,30.28,North,360,0.0,0.0,97,0.00,,,0.00,VWS V14.01,2013-01-15 19:07:00,
2013-01-15 14:13:00,40.1,39.2,30.29,North,360,0.0,0.0,97,0.00,,,0.00,VWS V14.01,2013-01-15 19:13:00,
2013-01-15 14:18:00,40.1,39.2,30.28,North,360,0.0,0.0,97,0.00,,,0.00,VWS V14.01,2013-01-15 19:18:00,
2013-01-15 14:23:00,40.1,39.2,30.26,North,360,0.0,0.0,97,0.00,,,0.00,VWS V14.01,2013-01-15 19:23:00,
2013-01-15 14:28:00,40.0,39.4,30.25,North,360,0.0,0.0,98,0.00,,,0.00,VWS V14.01,2013-01-15 19:28:00,
2013-01-15 14:33:00,39.9,39.3,30.26,North,360,0.0,0.0,98,0.00,,,0.00,VWS V14.01,2013-01-15 19:33:00,
2013-01-15 14:43:00,39.3,38.7,30.26,North,360,0.0,0.0,98,0.00,,,0.00,VWS V14.01,2013-01-15 19:43:00,
2013-01-15 14:48:00,39.3,38.7,30.26,North,360,0.0,0.0,98,0.00,,,0.00,VWS V14.01,2013-01-15 19:48:00,
2013-01-15 14:53:00,39.1,38.5,30.26,North,360,0.0,0.0,98,0.00,,,0.00,VWS V14.01,2013-01-15 19:53:00,
2013-01-15 15:07:00,39.1,38.5,30.27,North,360,0.0,0.0,98,0.00,,-RA,0.00,VWS V14.01,2013-01-15 20:07:00,
2013-01-15 15:13:00,39.0,38.4,30.29,North,360,0.0,0.0,98,0.00,,-RA,0.00,VWS V14.01,2013-01-15 20:13:00,
2013-01-15 15:18:00,38.9,38.3,30.28,North,360,0.0,0.0,98,0.00,,-RA,0.00,VWS V14.01,2013-01-15 20:18:00,
2013-01-15 15:23:00,38.7,37.5,30.28,North,360,0.0,0.0,96,0.00,,-RA,0.00,VWS V14.01,2013-01-15 20:23:00,
2013-01-15 15:28:00,38.6,37.2,30.27,North,360,0.0,0.0,94,0.00,,-RA,0.00,VWS V14.01,2013-01-15 20:28:00,
2013-01-15 15:38:00,38.6,36.8,30.27,North,360,0.0,0.0,93,0.00,,-RA,0.00,VWS V14.01,2013-01-15 20:38:00,
2013-01-15 15:43:00,38.6,36.8,30.27,North,360,0.0,0.0,93,0.00,,-RA,0.00,VWS V14.01,2013-01-15 20:43:00,
2013-01-15 15:48:00,38.6,36.8,30.28,North,360,0.0,0.0,93,0.00,,-RA,0.00,VWS V14.01,2013-01-15 20:48:00,
2013-01-15 15:53:00,38.6,37.2,30.29,North,360,0.0,0.0,94,0.00,,-RA,0.00,VWS V14.01,2013-01-15 20:53:00,
2013-01-15 15:58:00,38.4,37.0,30.30,North,360,0.0,0.0,94,0.00,,OVC010,0.00,VWS V14.01,2013-01-15 20:58:00,
2013-01-15 16:07:00,38.4,37.0,30.31,North,360,0.0,0.0,94,0.00,,OVC010,0.00,VWS V14.01,2013-01-15 21:07:00,
2013-01-15 16:13:00,38.7,37.2,30.30,North,360,0.0,0.0,94,0.00,,OVC010,0.00,VWS V14.01,2013-01-15 21:13:00,
2013-01-15 16:18:00,38.5,37.3,30.29,North,360,0.0,0.0,96,0.00,,OVC010,0.00,VWS V14.01,2013-01-15 21:18:00,
2013-01-15 16:23:00,38.5,36.8,30.29,North,360,0.0,0.0,93,0.00,,OVC010,0.00,VWS V14.01,2013-01-15 21:23:00,
2013-01-15 16:28:00,38.6,37.2,30.29,North,360,0.0,0.0,94,0.00,,OVC010,0.00,VWS V14.01,2013-01-15 21:28:00,
2013-01-15 16:33:00,38.7,37.2,30.28,North,360,0.0,0.0,94,0.00,,OVC010,0.00,VWS V14.01,2013-01-15 21:33:00,
2013-01-15 16:43:00,38.6,37.2,30.28,North,360,0.0,0.0,94,0.00,,OVC010,0.00,VWS V14.01,2013-01-15 21:43:00,
2013-01-15 16:48:00,38.5,37.0,30.28,North,360,0.0,0.0,94,0.00,,OVC010,0.00,VWS V14.01,2013-01-15 21:48:00,
2013-01-15 16:53:00,38.5,37.3,30.27,North,360,0.0,0.0,96,0.00,,OVC010,0.00,VWS V14.01,2013-01-15 21:53:00,
2013-01-15 16:58:00,38.4,37.2,30.27,North,360,0.0,0.0,96,0.00,,OVC010,0.00,VWS V14.01,2013-01-15 21:58:00,
2013-01-15 17:07:00,38.4,37.2,30.27,North,360,0.0,0.0,96,0.00,,OVC010,0.00,VWS V14.01,2013-01-15 22:07:00,
2013-01-15 17:13:00,38.6,37.4,30.26,North,360,0.0,0.0,96,0.00,,OVC010,0.00,VWS V14.01,2013-01-15 22:13:00,
2013-01-15 17:18:00,38.5,37.3,30.25,North,360,0.0,0.0,96,0.00,,OVC010,0.00,VWS V14.01,2013-01-15 22:18:00,
2013-01-15 17:23:00,38.5,37.3,30.25,North,360,0.0,0.0,96,0.00,,OVC010,0.00,VWS V14.01,2013-01-15 22:23:00,
2013-01-15 17:33:00,38.5,37.3,30.26,North,360,0.0,0.0,96,0.00,,OVC010,0.00,VWS V14.01,2013-01-15 22:33:00,
2013-01-15 17:38:00,38.6,37.2,30.27,North,360,0.0,0.0,94,0.00,,OVC010,0.00,VWS V14.01,2013-01-15 22:38:00,
2013-01-15 17:43:00,38.6,37.2,30.27,North,360,0.0,0.0,94,0.00,,OVC010,0.00,VWS V14.01,2013-01-15 22:43:00,
2013-01-15 17:48:00,38.7,37.2,30.27,North,360,0.0,0.0,94,0.00,,OVC010,0.00,VWS V14.01,2013-01-15 22:48:00,
2013-01-15 17:53:00,38.6,37.2,30.27,North,360,0.0,0.0,94,0.00,,OVC010,0.00,VWS V14.01,2013-01-15 22:53:00,
2013-01-15 17:58:00,38.7,37.2,30.28,North,360,0.0,0.0,94,0.00,,-RA,0.00,VWS V14.01,2013-01-15 22:58:00,
2013-01-15 18:07:00,38.7,37.2,30.29,North,360,0.0,0.0,94,0.00,,-RA,0.00,VWS V14.01,2013-01-15 23:07:00,
2013-01-15 18:13:00,38.6,37.4,30.29,North,360,0.0,0.0,96,0.00,,-RA,0.00,VWS V14.01,2013-01-15 23:13:00,
2013-01-15 18:18:00,38.7,37.5,30.28,North,360,0.0,0.0,96,0.00,,-RA,0.00,VWS V14.01,2013-01-15 23:18:00,
2013-01-15 18:28:00,38.7,37.5,30.29,North,360,0.0,0.0,96,0.00,,-RA,0.00,VWS V14.01,2013-01-15 23:28:00,
2013-01-15 18:33:00,38.8,37.3,30.28,North,360,0.0,0.0,94,0.00,,-RA,0.00,VWS V14.01,2013-01-15 23:33:00,
2013-01-15 18:38:00,38.8,37.3,30.28,North,360,0.0,0.0,94,0.00,,-RA,0.00,VWS V14.01,2013-01-15 23:38:00,
2013-01-15 18:43:00,38.9,37.5,30.27,North,360,0.0,0.0,94,0.00,,-RA,0.00,VWS V14.01,2013-01-15 23:43:00,
2013-01-15 18:48:00,38.9,37.5,30.27,North,360,0.0,0.0,94,0.00,,-RA,0.00,VWS V14.01,2013-01-15 23:48:00,
2013-01-15 18:58:00,38.9,37.5,30.27,North,360,0.0,0.0,94,0.00,,OVC031,0.00,VWS V14.01,2013-01-15 23:58:00,
2013-01-15 19:07:00,38.8,37.0,30.27,North,360,0.0,0.0,93,0.00,,OVC031,0.00,VWS V14.01,2013-01-16 00:07:00,
2013-01-15 19:13:00,38.6,36.8,30.28,North,360,0.0,0.0,93,0.00,,OVC031,0.00,VWS V14.01,2013-01-16 00:13:00,
2013-01-15 19:18:00,38.6,37.2,30.28,North,360,0.0,0.0,94,0.00,,OVC031,0.00,VWS V14.01,2013-01-16 00:18:00,
2013-01-15 19:23:00,38.6,37.2,30.28,North,360,0.0,0.0,94,0.00,,OVC031,0.00,VWS V14.01,2013-01-16 00:23:00,
2013-01-15 19:28:00,38.6,36.8,30.28,North,360,0.0,0.0,93,0.00,,OVC031,0.00,VWS V14.01,2013-01-16 00:28:00,
2013-01-15 19:33:00,38.5,36.8,30.28,North,360,0.0,0.0,93,0.00,,OVC031,0.00,VWS V14.01,2013-01-16 00:33:00,
2013-01-15 19:43:00,38.4,37.2,30.28,North,360,0.0,0.0,96,0.00,,OVC031,0.00,VWS V14.01,2013-01-16 00:43:00,
2013-01-15 19:48:00,38.4,37.2,30.28,North,360,0.0,0.0,96,0.00,,OVC031,0.00,VWS V14.01,2013-01-16 00:48:00,
2013-01-15 19:58:00,38.3,37.2,30.27,North,360,0.0,0.0,96,0.00,,OVC031,0.00,VWS V14.01,2013-01-16 00:58:00,
2013-01-15 20:07:00,38.2,37.0,30.27,North,360,0.0,0.0,96,0.00,,OVC031,0.00,VWS V14.01,2013-01-16 01:07:00,
2013-01-15 20:13:00,37.9,36.8,30.27,North,360,0.0,0.0,96,0.00,,OVC031,0.00,VWS V14.01,2013-01-16 01:13:00,
2013-01-15 20:23:00,37.9,37.0,30.26,North,360,0.0,0.0,97,0.00,,OVC031,0.00,VWS V14.01,2013-01-16 01:23:00,
2013-01-15 20:33:00,38.0,37.1,30.25,North,360,0.0,0.0,97,0.00,,OVC031,0.00,VWS V14.01,2013-01-16 01:33:00,
2013-01-15 20:43:00,37.9,37.3,30.25,North,360,0.0,0.0,98,0.00,,OVC031,0.00,VWS V14.01,2013-01-16 01:43:00,
2013-01-15 20:48:00,37.9,37.3,30.25,North,360,0.0,0.0,98,0.00,,OVC031,0.00,VWS V14.01,2013-01-16 01:48:00,
2013-01-15 20:53:00,37.9,37.3,30.25,North,360,0.0,0.0,98,0.00,,OVC031,0.00,VWS V14.01,2013-01-16 01:53:00,
2013-01-15 20:58:00,37.9,37.3,30.24,North,360,0.0,0.0,98,0.00,,-RA,0.00,VWS V14.01,2013-01-16 01:58:00,
2013-01-15 21:07:00,38.0,37.4,30.24,North,360,0.0,0.0,98,0.00,,-RA,0.00,VWS V14.01,2013-01-16 02:07:00,
2013-01-15 21:13:00,37.8,37.2,30.25,North,360,0.0,0.0,98,0.00,,-RA,0.00,VWS V14.01,2013-01-16 02:13:00,
2013-01-15 21:18:00,37.8,37.2,30.26,North,360,0.0,0.0,98,0.00,,-RA,0.00,VWS V14.01,2013-01-16 02:18:00,
2013-01-15 21:23:00,37.8,37.2,30.26,North,360,0.0,0.0,98,0.00,,-RA,0.00,VWS V14.01,2013-01-16 02:23:00,
2013-01-15 21:28:00,37.8,37.2,30.26,North,360,0.0,0.0,98,0.00,,-RA,0.00,VWS V14.01,2013-01-16 02:28:00,
2013-01-15 21:38:00,37.7,37.1,30.25,North,360,0.0,0.0,98,0.00,,-RA,0.00,VWS V14.01,2013-01-16 02:38:00,
2013-01-15 21:43:00,37.4,36.8,30.24,North,360,0.0,0.0,98,0.00,,-RA,0.00,VWS V14.01,2013-01-16 02:43:00,
2013-01-15 21:48:00,37.4,36.8,30.23,North,360,0.0,0.0,98,0.00,,-RA,0.00,VWS V14.01,2013-01-16 02:48:00,
2013-01-15 21:53:00,37.4,36.8,30.23,North,360,0.0,0.0,98,0.00,,-RA,0.00,VWS V14.01,2013-01-16 02:53:00,
2013-01-15 22:07:00,37.2,36.6,30.21,North,360,0.0,0.0,98,0.00,,-RA,0.00,VWS V14.01,2013-01-16 03:07:00,
2013-01-15 22:13:00,36.9,36.3,30.21,North,360,0.0,0.0,98,0.00,,-RA,0.00,VWS V14.01,2013-01-16 03:13:00,
2013-01-15 22:23:00,36.9,36.3,30.21,North,360,0.0,0.0,98,0.00,,-RA,0.00,VWS V14.01,2013-01-16 03:23:00,
2013-01-15 22:28:00,36.9,36.3,30.20,North,360,0.0,0.0,98,0.00,,-RA,0.00,VWS V14.01,2013-01-16 03:28:00,
2013-01-15 22:38:00,36.7,36.1,30.21,North,360,0.0,0.0,98,0.00,,-RA,0.00,VWS V14.01,2013-01-16 03:38:00,
2013-01-15 22:43:00,36.6,36.0,30.21,North,360,0.0,0.0,98,0.00,,-RA,0.00,VWS V14.01,2013-01-16 03:43:00,
2013-01-15 22:48:00,36.3,35.7,30.21,North,360,0.0,0.0,98,0.00,,-RA,0.00,VWS V14.01,2013-01-16 03:48:00,
2013-01-15 22:58:00,36.2,35.6,30.20,North,360,0.0,0.0,98,0.00,,-RA,0.00,VWS V14.01,2013-01-16 03:58:00,
2013-01-15 23:07:00,36.1,35.5,30.21,North,360,0.0,0.0,98,0.00,,-RA,0.00,VWS V14.01,2013-01-16 04:07:00,
2013-01-15 23:13:00,36.2,35.6,30.20,North,360,0.0,0.0,98,0.00,,-RA,0.00,VWS V14.01,2013-01-16 04:13:00,
2013-01-15 23:18:00,36.1,35.5,30.19,North,360,0.0,0.0,98,0.00,,-RA,0.00,VWS V14.01,2013-01-16 04:18:00,
2013-01-15 23:28:00,36.2,35.6,30.18,North,360,0.0,0.0,98,0.00,,-RA,0.00,VWS V14.01,2013-01-16 04:28:00,
2013-01-15 23:33:00,36.1,35.5,30.18,North,360,0.0,0.0,98,0.00,,-RA,0.00,VWS V14.01,2013-01-16 04:33:00,
2013-01-15 23:38:00,36.2,35.6,30.17,North,360,0.0,0.0,98,0.00,,-RA,0.00,VWS V14.01,2013-01-16 04:38:00,
2013-01-15 23:43:00,36.1,35.8,30.17,North,360,0.0,0.0,99,0.00,,-RA,0.00,VWS V14.01,2013-01-16 04:43:00,
2013-01-15 23:53:00,36.2,35.9,30.17,North,360,0.0,0.0,99,0.00,,-RA,0.00,VWS V14.01,2013-01-16 04:53:00,
2013-01-15 23:58:00,36.1,35.8,30.18,North,360,0.0,0.0,99,0.00,,-RA,0.00,VWS V14.01,2013-01-16 04:58:00,